x

Capel Curig Saws (03305) Weather Station

10:00am - Tue 21st Oct 2014 All times are BST. 1 hours from GMT.

  • Wind
    28mph, 54mph gusts
  • Air Temp 48°f
  • Sea Pressure 1004mb
  • Capel Curig Saws
  • Capel Curig Saws

More Historic Weather Station data

Upgrade to MSW Pro to gain access to the past 30 days of data for over 8000 Wavebouys and Weather Stations around the globe.

Join Pro

Comparision Forecast

View Surf forecast
   
Tue 10/21 10:00am 28 54 mph 1004mb 48f
9:00am 32 56 mph 1002mb 47f
8:00am 33 56 mph 1000mb 48f
7:00am 36 61 mph 999mb 49f
6:00am 39 64 mph 997mb 51f
5:00am 33 61 mph 995mb 55f
4:00am 48 66 mph 995mb 55f
3:00am 41 63 mph 996mb 55f
2:00am 43 57 mph 999mb 54f
1:00am 38
mph
1001mb 54f
12:00am 40 60 mph 1003mb 54f
Mon 10/20 11:00pm 38 54 mph 1004mb 54f
10:00pm 32 45 mph 1006mb 54f
9:00pm 26 41 mph 1007mb 54f
8:00pm 26 36 mph 1008mb 54f
7:00pm 24 34 mph 1009mb 54f
6:00pm 24 37 mph 1010mb 53f
5:00pm 23 33 mph 1010mb 54f
4:00pm 24 31 mph 1010mb 54f
3:00pm 24 33 mph 1011mb 54f
2:00pm 23 31 mph 1012mb 53f
1:00pm 23 32 mph 1013mb 53f
12:00pm 24 34 mph 1013mb 51f
11:00am 18 31 mph 1013mb 53f
10:00am 18 38 mph 1013mb 51f
9:00am 18 32 mph 1013mb 53f
8:00am 23 33 mph 1012mb 53f
7:00am 23 33 mph 1013mb 53f
6:00am 23 32 mph 1013mb 53f
5:00am 22 31 mph 1013mb 53f
4:00am 19 29 mph 1013mb 52f
3:00am 18 29 mph 1013mb 52f
2:00am 15 31 mph 1013mb 52f
1:00am 19 29 mph 1013mb 53f
12:00am 16
mph
1013mb 53f
Sun 10/19 11:00pm 18 31 mph 1012mb 54f
10:00pm 23 36 mph 1012mb 55f
9:00pm 23 36 mph 1010mb 55f
8:00pm 25 34 mph 1009mb 55f
7:00pm 21 46 mph 1009mb 55f
6:00pm 29 44 mph 1008mb 55f
5:00pm 33 48 mph 1008mb 55f
4:00pm 37 57 mph 1007mb 55f
3:00pm 41 63 mph 1006mb 56f
2:00pm 47 63 mph 1006mb 55f
1:00pm 40 57 mph 1007mb 55f
12:00pm 40 59 mph 1007mb 56f
11:00am 40 61 mph 1006mb 56f
10:00am 32 57 mph 1006mb 55f
9:00am 38 52 mph 1006mb 55f
8:00am 31 53 mph 1005mb 56f
7:00am 33 56 mph 1005mb 56f
6:00am 38 53 mph 1005mb 57f
5:00am 30 53 mph 1005mb 56f
4:00am 36 60 mph 1005mb 57f
3:00am 41 56 mph 1005mb 57f
2:00am 43 61 mph 1005mb 58f
1:00am 43 60 mph 1005mb 58f
12:00am 40 54 mph 1006mb 58f
Sat 10/18 11:00pm 39 52 mph 1006mb 59f
10:00pm 37 51 mph 1006mb 59f
9:00pm 36 51 mph 1005mb 59f
8:00pm 36 52 mph 1005mb 59f
7:00pm 29 55 mph 1005mb 58f
6:00pm 40 54 mph 1004mb 59f
5:00pm 37 53 mph 1004mb 60f
4:00pm 36 53 mph 1004mb 60f
3:00pm 38 53 mph 1004mb 60f
2:00pm 33 51 mph 1004mb 60f
1:00pm 38 53 mph 1004mb 59f
12:00pm 34 53 mph 1003mb 60f
11:00am 31 53 mph 1003mb 59f
10:00am 33 51 mph 1002mb 60f
9:00am 34 51 mph 1002mb 60f
8:00am 33 52 mph 1001mb 59f
7:00am 31 55 mph 1000mb 58f
6:00am 37 56 mph 1000mb 60f
5:00am 40 66 mph 999mb 60f
4:00am 33 52 mph 999mb 62f
3:00am 32 45 mph 999mb 61f
2:00am 30 51 mph 999mb 62f
1:00am 33 63 mph 999mb 62f
12:00am 25 51 mph 999mb 64f
Fri 10/17 11:00pm 16 38 mph 1000mb 61f
10:00pm 18 41 mph 1001mb 61f
9:00pm 15 36 mph 1002mb 60f
8:00pm 13 31 mph 1003mb 60f
7:00pm 8 24 mph 1003mb 61f
6:00pm 8 21 mph 1003mb 61f
5:00pm 7
mph
1004mb 60f
4:00pm 14 26 mph 1005mb 60f
3:00pm 13 32 mph 1005mb 60f
2:00pm 23 38 mph 1005mb 60f
1:00pm 23 43 mph 1005mb 58f
12:00pm 23 40 mph 1005mb 59f
11:00am 30 40 mph 1005mb 58f